This is the latest recevied weather packets stored in our database for station/object AI5BL. If no packets are shown the sender has not sent any weather packets the latest 10 day(s).
| Time | Temp. | Humidity | Pressure | Rain* | Wind** | Luminosity | Snow |
|---|---|---|---|---|---|---|---|
| 1788313673 | 28.33° C | 84% | 1018.8 hPa | 0 mm | - | 0 W/m² | - |
| 1788313370 | 27.78° C | 84% | 1018.8 hPa | 0 mm | - | 0 W/m² | - |
| 1788313068 | 28.33° C | 84% | 1018.8 hPa | 0 mm | - | 0 W/m² | - |
| 1788312764 | 28.33° C | 83% | 1018.7 hPa | 0 mm | - | 0 W/m² | - |
| 1788312459 | 28.33° C | 83% | 1018.5 hPa | 0 mm | - | 0 W/m² | - |
| 1788312155 | 28.33° C | 83% | 1018.5 hPa | 0 mm | - | 0 W/m² | - |
| 1788311850 | 28.33° C | 82% | 1018.5 hPa | 0 mm | - | 0 W/m² | - |
| 1788311549 | 28.33° C | 82% | 1018.3 hPa | 0 mm | - | 0 W/m² | - |
| 1788311243 | 28.33° C | 81% | 1018 hPa | 0 mm | - | 0 W/m² | - |
| 1788310939 | 28.33° C | 80% | 1018 hPa | 0 mm | - | 0 W/m² | - |
| 1788310637 | 28.89° C | 79% | 1017.9 hPa | 0 mm | - | 0 W/m² | - |
| 1788310333 | 28.89° C | 77% | 1017.9 hPa | 0 mm | - | 0 W/m² | - |
| 1788310033 | 28.89° C | 76% | 1017.9 hPa | 0 mm | - | 0 W/m² | - |
| 1788309728 | 28.89° C | 76% | 1017.6 hPa | 0 mm | - | 0 W/m² | - |
| 1788309423 | 29.44° C | 76% | 1017.6 hPa | 0 mm | - | 0 W/m² | - |
| 1788309119 | 29.44° C | 76% | 1017.5 hPa | 0 mm | - | 0 W/m² | - |
| 1788308814 | 29.44° C | 74% | 1017.5 hPa | 0 mm | - | 1 W/m² | - |
| 1788308508 | 29.44° C | 72% | 1017.5 hPa | 0 mm | - | 1 W/m² | - |
| 1788308203 | 30° C | 72% | 1017.4 hPa | 0 mm | - | 2 W/m² | - |
| 1788307897 | 30° C | 70% | 1017.3 hPa | 0 mm | - | 3 W/m² | - |
| 1788307593 | 30° C | 69% | 1017.6 hPa | 0 mm | - | 5 W/m² | - |
| 1788307288 | 30° C | 69% | 1017.7 hPa | 0 mm | - | 9 W/m² | - |
| 1788306987 | 30° C | 68% | 1017.6 hPa | 0 mm | - | 10 W/m² | - |
| 1788306683 | 30.56° C | 66% | 1017.6 hPa | 0 mm | - | 11 W/m² | - |
| 1788306382 | 30.56° C | 67% | 1017.7 hPa | 0 mm | - | 15 W/m² | - |
* Rain latest hour (hover to see other rain measurements)
** Current wind speed in m/s (hover to see current wind gust speed)